Time,TemperatureF,DewpointF,PressureIn,WindDirection,WindDirectionDegrees,WindSpeedMPH,WindSpeedGustMPH,Humidity,HourlyPrecipIn,Conditions,Clouds,dailyrainin,SoftwareType,DateUTC
2013-08-27 00:16:00,61.8,60.0,30.14,NNW,345,0.0,0.0,94,0.00,,,0.00,weatherlink.com 1.10,2013-08-27 04:16:00,
2013-08-27 00:31:00,61.9,60.0,30.14,NNW,346,0.0,0.0,93,0.00,,,0.00,weatherlink.com 1.10,2013-08-27 04:31:00,
2013-08-27 00:46:00,61.6,60.0,30.13,NNW,346,0.0,0.0,93,0.00,,,0.00,weatherlink.com 1.10,2013-08-27 04:46:00,
2013-08-27 01:01:00,61.3,60.0,30.13,NNW,346,0.0,0.0,94,0.00,,,0.00,weatherlink.com 1.10,2013-08-27 05:01:00,
2013-08-27 01:16:00,61.0,59.0,30.13,NNW,344,0.0,0.0,94,0.00,,,0.00,weatherlink.com 1.10,2013-08-27 05:16:00,
2013-08-27 01:31:00,60.7,59.0,30.12,NNW,345,0.0,0.0,94,0.00,,,0.00,weatherlink.com 1.10,2013-08-27 05:31:00,
2013-08-27 01:46:00,60.5,59.0,30.11,NNW,344,0.0,0.0,94,0.00,,,0.00,weatherlink.com 1.10,2013-08-27 05:46:00,
2013-08-27 02:01:00,60.4,59.0,30.11,NNW,344,0.0,0.0,95,0.00,,,0.00,weatherlink.com 1.10,2013-08-27 06:01:00,
2013-08-27 02:16:00,60.7,59.0,30.11,NNW,344,0.0,0.0,94,0.00,,,0.00,weatherlink.com 1.10,2013-08-27 06:16:00,
2013-08-27 02:31:00,60.8,59.0,30.10,WSW,249,0.0,1.0,93,0.00,,,0.00,weatherlink.com 1.10,2013-08-27 06:31:00,
2013-08-27 02:46:00,61.2,59.0,30.10,WSW,249,0.0,1.0,93,0.00,,,0.00,weatherlink.com 1.10,2013-08-27 06:46:00,
2013-08-27 03:01:00,61.0,59.0,30.10,WSW,249,0.0,0.0,92,0.00,,,0.00,weatherlink.com 1.10,2013-08-27 07:01:00,
2013-08-27 03:16:00,60.7,58.0,30.10,WSW,249,0.0,1.0,92,0.00,,,0.00,weatherlink.com 1.10,2013-08-27 07:16:00,
2013-08-27 03:31:00,60.8,59.0,30.10,WSW,249,0.0,0.0,92,0.00,,,0.00,weatherlink.com 1.10,2013-08-27 07:31:00,
2013-08-27 03:46:00,60.6,59.0,30.09,WSW,249,0.0,0.0,93,0.00,,,0.00,weatherlink.com 1.10,2013-08-27 07:46:00,
2013-08-27 04:01:00,60.4,58.0,30.09,West,274,0.0,1.0,93,0.00,,,0.00,weatherlink.com 1.10,2013-08-27 08:01:00,
2013-08-27 04:16:00,60.5,58.0,30.09,West,263,1.0,2.0,91,0.00,,,0.00,weatherlink.com 1.10,2013-08-27 08:16:00,
2013-08-27 04:31:00,61.5,58.0,30.08,WSW,246,0.0,3.0,89,0.00,,,0.00,weatherlink.com 1.10,2013-08-27 08:31:00,
2013-08-27 04:46:00,61.9,58.0,30.08,WSW,248,0.0,2.0,87,0.00,,,0.00,weatherlink.com 1.10,2013-08-27 08:46:00,
2013-08-27 05:01:00,61.7,58.0,30.08,SW,219,0.0,1.0,88,0.00,,,0.00,weatherlink.com 1.10,2013-08-27 09:01:00,
2013-08-27 05:16:00,61.5,58.0,30.08,WSW,256,0.0,3.0,89,0.00,,,0.00,weatherlink.com 1.10,2013-08-27 09:16:00,
2013-08-27 05:31:00,61.3,58.0,30.07,WSW,248,0.0,3.0,89,0.00,,,0.00,weatherlink.com 1.10,2013-08-27 09:31:00,
2013-08-27 05:46:00,61.2,58.0,30.08,SW,222,1.0,2.0,90,0.00,,,0.00,weatherlink.com 1.10,2013-08-27 09:46:00,
2013-08-27 06:01:00,61.1,59.0,30.08,WSW,250,0.0,1.0,91,0.00,,,0.00,weatherlink.com 1.10,2013-08-27 10:01:00,
2013-08-27 06:16:00,60.7,58.0,30.07,West,262,0.0,0.0,91,0.00,,,0.00,weatherlink.com 1.10,2013-08-27 10:16:00,
2013-08-27 06:31:00,60.2,58.0,30.07,West,262,0.0,0.0,92,0.00,,,0.00,weatherlink.com 1.10,2013-08-27 10:31:00,
2013-08-27 06:46:00,59.9,58.0,30.07,WSW,243,0.0,0.0,93,0.00,,,0.00,weatherlink.com 1.10,2013-08-27 10:46:00,
2013-08-27 07:01:00,59.7,58.0,30.07,WSW,243,0.0,1.0,94,0.00,,,0.00,weatherlink.com 1.10,2013-08-27 11:01:00,
2013-08-27 07:16:00,59.7,58.0,30.07,WSW,243,0.0,0.0,94,0.00,,,0.00,weatherlink.com 1.10,2013-08-27 11:16:00,
2013-08-27 07:31:00,59.9,58.0,30.07,WSW,243,0.0,1.0,94,0.00,,,0.00,weatherlink.com 1.10,2013-08-27 11:31:00,
2013-08-27 07:46:00,60.7,59.0,30.07,WSW,240,1.0,3.0,93,0.00,,,0.00,weatherlink.com 1.10,2013-08-27 11:46:00,
2013-08-27 08:01:00,61.6,59.0,30.07,WSW,249,2.0,3.0,92,0.00,,,0.00,weatherlink.com 1.10,2013-08-27 12:01:00,
2013-08-27 08:16:00,62.8,60.0,30.07,WSW,246,0.0,3.0,91,0.00,,,0.00,weatherlink.com 1.10,2013-08-27 12:16:00,
2013-08-27 08:31:00,64.3,62.0,30.06,SW,232,0.0,1.0,91,0.00,,,0.00,weatherlink.com 1.10,2013-08-27 12:31:00,
2013-08-27 08:47:00,66.1,63.0,30.07,SW,236,0.0,2.0,90,0.00,,,0.00,weatherlink.com 1.10,2013-08-27 12:47:00,
2013-08-27 09:02:00,68.4,64.0,30.07,North,360,0.0,3.0,87,0.00,,,0.00,weatherlink.com 1.10,2013-08-27 13:02:00,
2013-08-27 09:17:00,70.0,65.0,30.06,SW,226,0.0,1.0,85,0.00,,,0.00,weatherlink.com 1.10,2013-08-27 13:17:00,
2013-08-27 09:32:00,71.7,66.0,30.05,SW,236,0.0,2.0,83,0.00,,,0.00,weatherlink.com 1.10,2013-08-27 13:32:00,
2013-08-27 09:47:00,73.4,68.0,30.05,SW,235,1.0,3.0,82,0.00,,,0.00,weatherlink.com 1.10,2013-08-27 13:47:00,
2013-08-27 10:02:00,75.1,69.0,30.05,NW,310,1.0,3.0,82,0.00,,,0.00,weatherlink.com 1.10,2013-08-27 14:02:00,
2013-08-27 10:17:00,76.6,69.0,30.05,West,260,1.0,4.0,78,0.00,,,0.00,weatherlink.com 1.10,2013-08-27 14:17:00,
2013-08-27 10:32:00,78.3,70.0,30.05,SW,235,1.0,2.0,76,0.00,,,0.00,weatherlink.com 1.10,2013-08-27 14:32:00,
2013-08-27 10:47:00,79.7,71.0,30.05,NNE,15,3.0,4.0,74,0.00,,,0.00,weatherlink.com 1.10,2013-08-27 14:47:00,
2013-08-27 11:02:00,80.3,71.0,30.05,NNW,340,0.0,4.0,73,0.00,,,0.00,weatherlink.com 1.10,2013-08-27 15:02:00,
2013-08-27 11:17:00,80.3,71.0,30.05,SW,226,0.0,4.0,73,0.00,,,0.00,weatherlink.com 1.10,2013-08-27 15:17:00,
2013-08-27 11:32:00,80.6,71.0,30.05,South,172,1.0,4.0,72,0.00,,,0.00,weatherlink.com 1.10,2013-08-27 15:32:00,
2013-08-27 11:47:00,81.4,73.0,30.04,NNW,340,1.0,4.0,75,0.00,,,0.00,weatherlink.com 1.10,2013-08-27 15:47:00,
2013-08-27 12:02:00,82.3,72.0,30.03,North,356,0.0,4.0,70,0.00,,,0.00,weatherlink.com 1.10,2013-08-27 16:02:00,
2013-08-27 12:18:00,83.1,71.0,30.02,North,6,6.0,7.0,68,0.00,,,0.00,weatherlink.com 1.10,2013-08-27 16:18:00,
2013-08-27 12:32:00,83.3,72.0,30.02,North,354,4.0,6.0,68,0.00,,,0.00,weatherlink.com 1.10,2013-08-27 16:32:00,
2013-08-27 12:47:00,83.8,72.0,30.02,North,350,3.0,6.0,68,0.00,,,0.00,weatherlink.com 1.10,2013-08-27 16:47:00,
2013-08-27 13:02:00,84.3,71.0,30.02,NE,42,4.0,6.0,65,0.00,,,0.00,weatherlink.com 1.10,2013-08-27 17:02:00,
2013-08-27 13:18:00,84.0,72.0,30.02,North,349,3.0,4.0,67,0.00,,,0.00,weatherlink.com 1.10,2013-08-27 17:18:00,
2013-08-27 13:33:00,84.9,70.0,30.01,NNW,333,1.0,7.0,62,0.00,,,0.00,weatherlink.com 1.10,2013-08-27 17:33:00,
2013-08-27 13:47:00,84.6,71.0,30.01,NNE,15,1.0,5.0,64,0.00,,,0.00,weatherlink.com 1.10,2013-08-27 17:47:00,
2013-08-27 14:03:00,85.2,71.0,30.01,NE,35,1.0,6.0,62,0.00,,,0.00,weatherlink.com 1.10,2013-08-27 18:03:00,
2013-08-27 14:18:00,85.7,72.0,30.00,NNE,19,4.0,4.0,63,0.00,,,0.00,weatherlink.com 1.10,2013-08-27 18:18:00,
2013-08-27 14:33:00,86.5,70.0,30.00,NE,43,1.0,3.0,58,0.00,,,0.00,weatherlink.com 1.10,2013-08-27 18:33:00,
2013-08-27 14:48:00,86.7,72.0,29.99,West,265,0.0,2.0,61,0.00,,,0.00,weatherlink.com 1.10,2013-08-27 18:48:00,
2013-08-27 15:03:00,87.5,71.0,29.99,NNE,20,0.0,3.0,58,0.00,,,0.00,weatherlink.com 1.10,2013-08-27 19:03:00,
2013-08-27 15:19:00,88.6,72.0,29.99,NNW,332,1.0,3.0,58,0.00,,,0.00,weatherlink.com 1.10,2013-08-27 19:19:00,
2013-08-27 15:33:00,88.4,71.0,29.98,West,274,1.0,4.0,57,0.00,,,0.00,weatherlink.com 1.10,2013-08-27 19:33:00,
2013-08-27 15:48:00,87.9,71.0,29.98,WSW,252,1.0,3.0,58,0.00,,,0.00,weatherlink.com 1.10,2013-08-27 19:48:00,
2013-08-27 16:03:00,89.8,69.0,29.97,SW,235,1.0,2.0,51,0.00,,,0.00,weatherlink.com 1.10,2013-08-27 20:03:00,
2013-08-27 16:19:00,89.3,70.0,29.97,NW,324,1.0,1.0,53,0.00,,,0.00,weatherlink.com 1.10,2013-08-27 20:19:00,
2013-08-27 16:34:00,87.8,70.0,29.97,North,5,0.0,3.0,56,0.00,,,0.00,weatherlink.com 1.10,2013-08-27 20:34:00,
2013-08-27 16:49:00,88.9,71.0,29.97,NE,35,1.0,2.0,55,0.00,,,0.00,weatherlink.com 1.10,2013-08-27 20:49:00,
2013-08-27 17:04:00,88.2,73.0,29.97,NNE,13,0.0,2.0,60,0.00,,,0.00,weatherlink.com 1.10,2013-08-27 21:04:00,
2013-08-27 17:34:00,87.4,73.0,29.98,NNE,33,0.0,4.0,62,0.00,,,0.00,weatherlink.com 1.10,2013-08-27 21:34:00,
2013-08-27 17:49:00,86.9,74.0,29.98,SW,236,0.0,2.0,65,0.00,,,0.00,weatherlink.com 1.10,2013-08-27 21:49:00,
2013-08-27 18:04:00,86.3,74.0,29.97,WSW,239,0.0,1.0,67,0.00,,,0.00,weatherlink.com 1.10,2013-08-27 22:04:00,
2013-08-27 18:20:00,85.9,74.0,29.97,WSW,239,0.0,1.0,68,0.00,,,0.00,weatherlink.com 1.10,2013-08-27 22:20:00,
2013-08-27 18:35:00,84.7,74.0,29.97,WSW,239,0.0,1.0,71,0.00,,,0.00,weatherlink.com 1.10,2013-08-27 22:35:00,
2013-08-27 18:49:00,83.0,76.0,29.97,WSW,239,0.0,0.0,78,0.00,,,0.00,weatherlink.com 1.10,2013-08-27 22:49:00,
2013-08-27 19:07:00,81.5,76.0,29.97,WSW,240,0.0,0.0,82,0.00,,,0.00,weatherlink.com 1.10,2013-08-27 23:07:00,
2013-08-27 19:21:00,80.6,75.0,29.97,WSW,241,0.0,0.0,83,0.00,,,0.00,weatherlink.com 1.10,2013-08-27 23:21:00,
2013-08-27 19:37:00,79.3,75.0,29.97,WSW,240,0.0,0.0,86,0.00,,,0.00,weatherlink.com 1.10,2013-08-27 23:37:00,
2013-08-27 19:51:00,78.3,75.0,29.98,WSW,239,0.0,0.0,90,0.00,,,0.00,weatherlink.com 1.10,2013-08-27 23:51:00,
2013-08-27 20:06:00,77.2,74.0,29.97,WSW,239,0.0,1.0,90,0.00,,,0.00,weatherlink.com 1.10,2013-08-28 00:06:00,
2013-08-27 20:21:00,76.3,74.0,29.97,WSW,240,0.0,0.0,91,0.00,,,0.00,weatherlink.com 1.10,2013-08-28 00:21:00,
2013-08-27 20:36:00,75.7,73.0,29.97,WSW,238,0.0,0.0,92,0.00,,,0.00,weatherlink.com 1.10,2013-08-28 00:36:00,
2013-08-27 20:52:00,75.1,73.0,29.97,WSW,239,0.0,0.0,93,0.00,,,0.00,weatherlink.com 1.10,2013-08-28 00:52:00,
2013-08-27 21:22:00,74.1,72.0,29.97,WSW,239,0.0,0.0,94,0.00,,,0.00,weatherlink.com 1.10,2013-08-28 01:22:00,
2013-08-27 21:37:00,73.7,72.0,29.97,WSW,239,0.0,0.0,95,0.00,,,0.00,weatherlink.com 1.10,2013-08-28 01:37:00,
2013-08-27 21:52:00,73.4,72.0,29.97,WSW,239,0.0,0.0,95,0.00,,,0.00,weatherlink.com 1.10,2013-08-28 01:52:00,
2013-08-27 22:06:00,73.2,72.0,29.97,WSW,240,0.0,0.0,95,0.00,,,0.00,weatherlink.com 1.10,2013-08-28 02:06:00,
2013-08-27 22:21:00,72.9,71.0,29.98,WSW,239,0.0,0.0,95,0.00,,,0.00,weatherlink.com 1.10,2013-08-28 02:21:00,
2013-08-27 22:52:00,73.0,72.0,29.98,WSW,239,0.0,0.0,96,0.00,,,0.00,weatherlink.com 1.10,2013-08-28 02:52:00,
2013-08-27 23:06:00,72.9,72.0,29.98,WSW,239,0.0,0.0,96,0.00,,,0.00,weatherlink.com 1.10,2013-08-28 03:06:00,
2013-08-27 23:21:00,72.7,72.0,29.99,WSW,239,0.0,0.0,96,0.00,,,0.00,weatherlink.com 1.10,2013-08-28 03:21:00,
2013-08-27 23:37:00,72.5,71.0,29.99,WSW,239,0.0,0.0,96,0.00,,,0.00,weatherlink.com 1.10,2013-08-28 03:37:00,
2013-08-27 23:52:00,72.2,71.0,29.98,WSW,239,0.0,0.0,96,0.00,,,0.00,weatherlink.com 1.10,2013-08-28 03:52:00,